Location: Newark
(35.4036°N, 80.4356°W)
Time: 14:21:21
(UTC+00:00)

Hubble Space Telescope - Visible Passes

Search period start: 23 July 2019 00:00
Search period end: 02 August 2019 00:00
Orbit: 536 x 540 km, 28.5° (Epoch: 22 July)

Date Brightness Start Highest point End Pass type
(mag) Time Alt. Az. Time Alt. Az. Time Alt. Az.
28 Jul 3.2 08:31:22 11° SSE 08:31:22 11° SSE 08:32:03 10° SE visible
29 Jul 3.2 08:21:20 12° SE 08:21:20 12° SE 08:22:13 10° SE visible
29 Jul 2.1 09:57:09 10° SW 10:00:40 27° S 10:04:13 10° ESE visible
30 Jul 3.2 08:11:18 13° SE 08:11:18 13° SE 08:12:03 10° ESE visible
30 Jul 1.9 09:46:38 11° SW 09:50:05 29° S 09:53:41 10° ESE visible
31 Jul 3.3 08:01:18 12° ESE 08:01:18 12° ESE 08:01:45 10° ESE visible
31 Jul 1.8 09:36:38 15° SW 09:39:28 30° S 09:43:08 10° ESE visible
01 Aug 3.5 07:51:19 10° ESE 07:51:19 10° ESE 07:51:22 10° ESE visible
01 Aug 1.8 09:26:39 19° SW 09:28:52 31° S 09:32:33 10° ESE visible
